FW2254 Weather Reports


Display with metric or nautical units.
time (UTC)temp
F
wind
direction
speed
MPH
gust
MPH
rain 1hr
in
rain 24hr
in
rain mn
in
humidity
%
barometer
mb
20260510124535 64 26 0.0 0.0 0.01 0.33 0.33 94 1011.7
20260510123033 64 26 0.0 0.0 0.01 0.33 0.33 94 1011.2
20260510121527 64 26 0.0 2.0 0.10 0.33 0.33 93 1011.4
20260510120025 65 26 0.0 0.0 0.27 0.33 0.33 93 1011.7
20260510114523 66 26 0.0 0.0 0.32 0.32 0.32 93 1013.0
20260510113021 66 26 0.0 0.0 0.32 0.32 0.32 92 1014.2
20260510111516 67 26 0.0 0.0 0.23 0.23 0.23 91 1014.9
20260510110017 68 26 0.0 0.0 0.05 0.05 0.05 90 1014.9
20260510104510 68 26 0.0 3.0 0.00 0.00 0.00 90 1013.6
20260510103007 68 26 0.0 0.0 0.00 0.00 0.00 91 1012.5
20260510101505 68 26 0.0 0.0 0.00 0.00 0.00 92 1012.2
20260510100100 68 26 0.0 1.0 0.00 0.00 0.00 93 1011.5
20260510094602 68 26 0.0 0.0 0.00 0.00 0.00 94 1011.6
20260510093059 68 26 0.0 1.0 0.00 0.00 0.00 95 1011.7
20260510091555 68 26 0.0 0.0 0.00 0.00 0.00 94 1010.4
20260510090059 68 26 0.0 0.0 0.00 0.00 0.00 94 1010.4
20260510084558 69 26 0.0 0.0 0.00 0.00 0.00 94 1010.4
20260510083057 69 26 0.0 0.0 0.00 0.00 0.00 94 1010.2
20260510081550 69 26 0.0 0.0 0.00 0.00 0.00 93 1009.7
20260510080046 69 26 0.0 0.0 0.00 0.00 0.00 93 1009.7
20260510074558 69 26 0.0 0.0 0.00 0.00 0.00 93 1009.4
20260510073046 70 26 0.0 0.0 0.00 0.00 0.00 93 1008.9
20260510071553 70 26 0.0 0.0 0.00 0.00 0.00 93 1008.5
20260510070022 70 26 0.0 0.0 0.00 0.00 0.00 94 1008.4
20260510064508 70 26 0.0 1.0 0.00 0.00 0.00 93 1008.3
20260510063005 71 26 0.0 1.0 0.00 0.00 0.00 93 1008.6
20260510061503 71 26 0.0 0.0 0.00 0.00 0.00 93 1008.8
20260510060005 71 26 0.0 0.0 0.00 0.00 0.00 93 1008.6
20260510054600 72 26 0.0 0.0 0.00 0.00 0.00 92 1008.8
20260510053057 72 26 0.0 1.0 0.00 0.00 0.00 92 1008.7
20260510051602 73 26 0.0 0.0 0.00 0.00 0.00 92 1008.4
20260510050053 73 26 0.0 2.0 0.00 0.00 0.00 92 1008.1
20260510044555 73 26 0.0 2.0 0.00 0.00 0.00 92 1008.0
20260510043055 74 26 0.0 3.0 0.00 0.00 0.00 92 1007.9
20260510041606 74 26 0.0 4.0 0.00 0.00 0.00 93 1008.0
20260510040045 75 26 0.0 3.0 0.00 0.00 0.00 92 1008.3
20260510034545 75 26 0.0 4.0 0.00 0.00 0.00 92 1008.2
20260510033039 75 26 0.0 1.0 0.00 0.00 0.00 91 1008.1
20260510031538 76 26 0.0 3.0 0.00 0.00 0.00 91 1008.0
20260510030034 76 26 0.0 2.0 0.00 0.00 0.00 91 1007.7
20260510024531 76 26 0.0 2.0 0.00 0.00 0.00 91 1007.5
20260510023028 76 26 0.0 0.0 0.00 0.00 0.00 90 1007.3
20260510021526 77 26 0.0 0.0 0.00 0.00 0.00 89 1007.2
20260510020024 77 26 0.0 0.0 0.00 0.00 0.00 89 1007.0
20260510014523 77 26 0.0 0.0 0.00 0.00 0.00 87 1007.0
20260510013017 78 26 0.0 0.0 0.00 0.00 0.00 86 1006.9
20260510011521 79 26 0.0 0.0 0.00 0.00 0.00 85 1006.5
20260510010012 79 26 0.0 0.0 0.00 0.00 0.00 84 1006.3
20260510004509 80 26 0.0 0.0 0.00 0.00 0.00 83 1006.2
20260510003004 80 26 0.0 0.0 0.00 0.00 0.00 82 1006.1
20260510001502 81 26 0.0 0.0 0.00 0.00 0.00 81 1006.0
20260510000126 81 26 0.0 0.0 0.00 0.00 0.00 81 1005.8
20260509234605 82 26 0.0 0.0 0.00 0.00 0.00 80 1005.7
20260509233023 83 26 0.0 0.0 0.00 0.00 0.00 78 1005.5
20260509231529 83 26 0.0 0.0 0.00 0.00 0.00 76 1005.5
20260509230049 83 26 0.0 0.0 0.00 0.00 0.00 75 1005.3
20260509224551 82 26 0.0 0.0 0.00 0.00 0.00 77 1005.4
20260509223046 83 26 0.0 0.0 0.00 0.00 0.00 75 1005.4
20260509221603 83 26 0.0 0.0 0.00 0.00 0.00 74 1005.4
20260509220057 84 26 0.0 0.0 0.00 0.00 0.00 69 1005.3
20260509214544 85 26 0.0 0.0 0.00 0.00 0.00 70 1005.5
20260509213038 85 26 0.0 0.0 0.00 0.00 0.00 71 1005.6
20260509211536 85 26 0.0 0.0 0.00 0.00 0.00 70 1005.8
20260509210035 85 26 0.0 0.0 0.00 0.00 0.00 69 1006.0
20260509204535 87 26 0.0 0.0 0.00 0.00 0.00 65 1006.0
20260509203036 86 26 0.0 0.0 0.00 0.00 0.00 67 1006.2
20260509201528 85 26 0.0 0.0 0.00 0.00 0.00 69 1006.2
20260509200031 85 26 0.0 0.0 0.00 0.00 0.00 72 1006.3
20260509194525 84 26 0.0 0.0 0.00 0.00 0.00 74 1006.6
20260509193023 82 26 0.0 0.0 0.00 0.00 0.00 75 1006.9
20260509191523 83 26 0.0 0.0 0.00 0.00 0.00 75 1007.0
20260509190036 83 26 0.0 0.0 0.00 0.00 0.00 75 1007.2
20260509184532 85 26 0.0 0.0 0.00 0.00 0.00 72 1007.2
20260509183027 83 26 0.0 0.0 0.00 0.00 0.00 75 1007.3
20260509181517 84 26 0.0 2.0 0.00 0.00 0.00 75 1007.5
20260509180014 82 26 0.0 0.0 0.00 0.00 0.00 75 1007.7
20260509174516 81 26 0.0 0.0 0.00 0.00 0.00 79 1007.7
20260509173015 80 26 0.0 3.0 0.00 0.00 0.00 81 1007.8
20260509171509 80 26 0.0 2.0 0.00 0.00 0.00 81 1008.0
20260509170013 81 26 0.0 1.0 0.00 0.00 0.00 82 1008.0
20260509164507 79 26 0.0 1.0 0.00 0.00 0.00 84 1008.1
20260509163006 79 26 0.0 2.0 0.00 0.00 0.00 83 1008.0
20260509161502 78 26 0.0 2.0 0.00 0.00 0.00 87 1008.0
20260509160059 76 26 0.0 3.0 0.00 0.00 0.00 89 1008.0
20260509154558 75 26 0.0 2.0 0.00 0.00 0.00 93 1008.1
20260509153057 73 25 0.0 0.0 0.00 0.00 0.00 95 1008.0
20260509151559 72 26 0.0 0.0 0.00 0.00 0.00 95 1007.9
20260509150053 72 26 0.0 0.0 0.00 0.00 0.00 95 1007.8
20260509144553 72 26 0.0 0.0 0.00 0.00 0.00 95 1008.0
20260509143054 71 26 0.0 1.0 0.00 0.00 0.00 95 1008.0
20260509141551 71 26 0.0 0.0 0.00 0.00 0.00 95 1008.0
20260509140049 71 26 0.0 0.0 0.00 0.00 0.00 95 1008.4
20260509134556 71 26 0.0 0.0 0.00 0.00 0.00 95 1008.5
20260509133048 71 26 0.0 0.0 0.00 0.00 0.00 95 1008.6
20260509131601 71 26 0.0 0.0 0.00 0.00 0.00 94 1008.6
20260509130056 70 26 0.0 0.0 0.00 0.00 0.00 94 1008.5